Regional Weather Roundup
Issued by NWS Midland/Odessa, TX

Skip options and go directly to product.
Home | Oldest Version | Previous Version | Current Version | All | Text Only | Save Text | Print | Product List | Glossary On

Skip product version selection by date and time.   
776
ASUS44 KMAF 200010
RWRMAF
MIDLAND AREA WEATHER ROUNDUP
NATIONAL WEATHER SERVICE MIDLAND TX
600 PM CST FRI DEC 19 2014

...IN SOUTHWEST TEXAS AND SOUTHEAST NEW MEXICO...

CITY           SKY/WX    TMP DP  RH WIND       PRES   REMARKS
ALPINE         CLEAR     50  27  40 SW7       30.18R
ANDREWS        FAIR      48  35  60 SE7       30.11S
ARTESIA        CLEAR     54  28  37 SE6       30.09S
BIG SPRING     CLOUDY    46  37  73 N6        30.17R
CARLSBAD       CLEAR     53  33  46 E6        30.08S
DRYDEN           N/A     62  41  46 E8        30.07R
FORT STOCKTON  CLEAR     53  34  48 NE5       30.12R
GUAD PASS      NOT AVBL
HOBBS          CLEAR     50  23  34 W5        30.11R
MARFA          CLEAR     48  25  40 W9        30.15S
MIDLAND AIRPK  CLEAR     49  39  68 E7        30.13R
MIDLAND INTL   CLEAR     50  38  63 E6        30.11S
ODESSA         CLEAR     51  36  56 E6        30.11S
PECOS          CLEAR     56  31  38 CALM      30.11R
PRESIDIO       FAIR      61  34  36 CALM      30.09S
SEMINOLE       CLEAR     50  32  50 SE3       30.11S
SNYDER         CLOUDY    43  38  82 CALM      30.16S
WINK           CLEAR     54  32  43 S7        30.09R
$$
...OTHER STATIONS IN TEXAS...

CITY           SKY/WX    TMP DP  RH WIND       PRES   REMARKS
ABILENE        CLOUDY    46  40  79 NE3       30.16S
AMARILLO       CLOUDY    40  36  86 SW5       30.14R WCI  37
AUSTIN         CLOUDY    52  47  83 N14       30.12R
BROWNSVILLE    CLOUDY    61  57  87 N10       30.02R
CORPUS CHRISTI CLOUDY    61  56  83 N12       30.05R
DALLAS FTW     DRIZZLE   48  44  86 N8        30.17S
DEL RIO        CLEAR     65  44  46 N5        30.05R
EL PASO        PTCLDY    52  31  44 W5        30.13S
HOUSTON INT    CLOUDY    54  52  93 N12       30.06R
LUBBOCK        MOCLDY    41  36  82 E6        30.13R WCI  37
SAN ANGELO     CLOUDY    49  42  77 E6        30.15R
SAN ANTONIO    PTCLDY    55  47  74 N12       30.10R
WACO           CLOUDY    49  46  90 N9        30.16S
WICHITA FALLS  NOT AVBL
$$
...OTHER LOCATIONS IN NEW MEXICO...

CITY           SKY/WX    TMP DP  RH WIND       PRES   REMARKS
ALAMAGORDO     CLEAR     46  28  49 N7        30.14S
ALBUQUERQUE    PTCLDY    41  23  48 NW12      30.17S WCI  34
CANNON AFB     CLEAR     43  28  56 NE2       30.09F
CLOVIS         CLEAR     43  28  56 CALM      30.09F
HOLLOMAN AFB   CLEAR     47  30  51 NW6       30.13S
ROSWELL        CLEAR     55  21  26 NW3       30.07S
RUIDOSO        CLEAR     36  19  51 NW13      30.15S WCI  27
SANTA FE       CLEAR     34  21  59 N13       30.13S WCI  25
TRUTH OR CONSE CLEAR     47  26  44 NE6       30.13F
TUCUMCARI      CLEAR     38  27  64 E8        30.07F WCI  32
$$

USA.gov is the U.S. government's official web portal to all federal, state and local government web resources and services.